Time,TemperatureF,DewpointF,PressureIn,WindDirection,WindDirectionDegrees,WindSpeedMPH,WindSpeedGustMPH,Humidity,HourlyPrecipIn,Conditions,Clouds,dailyrainin,SoftwareType,DateUTC
2013-02-19 00:00:00,71.0,53.0,30.18,ESE,120,22.0,23.0,51,-99.99,,,-99.99,,2013-02-19 05:00:00,
2013-02-19 00:22:00,71.0,53.0,30.18,ESE,120,22.0,23.0,51,-99.99,,,-99.99,,2013-02-19 05:22:00,
2013-02-19 00:31:00,71.0,53.0,30.18,ESE,120,22.0,23.0,51,-99.99,,,-99.99,,2013-02-19 05:31:00,
2013-02-19 00:42:00,71.0,53.0,30.18,ESE,120,22.0,23.0,51,-99.99,,,-99.99,,2013-02-19 05:42:00,
2013-02-19 00:52:00,71.0,53.0,30.18,ESE,120,22.0,23.0,51,-99.99,,,-99.99,,2013-02-19 05:52:00,
2013-02-19 01:00:00,72.0,54.0,30.16,SE,130,22.0,25.0,52,-99.99,,,-99.99,,2013-02-19 06:00:00,
2013-02-19 01:21:00,72.0,54.0,30.16,SE,130,22.0,25.0,52,-99.99,,,-99.99,,2013-02-19 06:21:00,
2013-02-19 01:32:00,72.0,54.0,30.16,SE,130,22.0,25.0,52,-99.99,,,-99.99,,2013-02-19 06:32:00,
2013-02-19 01:41:00,72.0,54.0,30.16,SE,130,22.0,25.0,52,-99.99,,,-99.99,,2013-02-19 06:41:00,
2013-02-19 01:52:00,72.0,54.0,30.16,SE,130,22.0,25.0,52,-99.99,,,-99.99,,2013-02-19 06:52:00,
2013-02-19 02:00:00,71.0,58.0,30.16,ESE,120,18.0,20.0,63,-99.99,,,-99.99,,2013-02-19 07:00:00,
2013-02-19 02:21:00,71.0,58.0,30.16,ESE,120,18.0,20.0,63,-99.99,,,-99.99,,2013-02-19 07:21:00,
2013-02-19 02:31:00,71.0,58.0,30.16,ESE,120,18.0,20.0,63,-99.99,,,-99.99,,2013-02-19 07:31:00,
2013-02-19 02:41:00,71.0,58.0,30.16,ESE,120,18.0,20.0,63,-99.99,,,-99.99,,2013-02-19 07:41:00,
2013-02-19 02:51:00,71.0,58.0,30.16,ESE,120,18.0,20.0,63,-99.99,,,-99.99,,2013-02-19 07:51:00,
2013-02-19 03:00:00,71.0,61.0,30.14,ESE,120,21.0,22.0,70,-99.99,,,-99.99,,2013-02-19 08:00:00,
2013-02-19 03:21:00,71.0,61.0,30.14,ESE,120,21.0,22.0,70,-99.99,,,-99.99,,2013-02-19 08:21:00,
2013-02-19 03:31:00,71.0,61.0,30.14,ESE,120,21.0,22.0,70,-99.99,,,-99.99,,2013-02-19 08:31:00,
2013-02-19 03:41:00,71.0,61.0,30.14,ESE,120,21.0,22.0,70,-99.99,,,-99.99,,2013-02-19 08:41:00,
2013-02-19 03:52:00,71.0,61.0,30.14,ESE,120,21.0,22.0,70,-99.99,,,-99.99,,2013-02-19 08:52:00,
2013-02-19 04:00:00,71.0,62.0,30.12,ESE,110,23.0,25.0,72,-99.99,,,-99.99,,2013-02-19 09:00:00,
2013-02-19 04:21:00,71.0,62.0,30.12,ESE,110,23.0,25.0,72,-99.99,,,-99.99,,2013-02-19 09:21:00,
2013-02-19 04:31:00,71.0,62.0,30.12,ESE,110,23.0,25.0,72,-99.99,,,-99.99,,2013-02-19 09:31:00,
2013-02-19 04:41:00,71.0,62.0,30.12,ESE,110,23.0,25.0,72,-99.99,,,-99.99,,2013-02-19 09:41:00,
2013-02-19 04:52:00,71.0,62.0,30.12,ESE,110,23.0,25.0,72,-99.99,,,-99.99,,2013-02-19 09:52:00,
2013-02-19 05:00:00,72.0,63.0,30.12,ESE,120,21.0,23.0,73,-99.99,,,-99.99,,2013-02-19 10:00:00,
2013-02-19 05:21:00,72.0,63.0,30.12,ESE,120,21.0,23.0,73,-99.99,,,-99.99,,2013-02-19 10:21:00,
2013-02-19 05:31:00,72.0,63.0,30.12,ESE,120,21.0,23.0,73,-99.99,,,-99.99,,2013-02-19 10:31:00,
2013-02-19 05:41:00,72.0,63.0,30.12,ESE,120,21.0,23.0,73,-99.99,,,-99.99,,2013-02-19 10:41:00,
2013-02-19 05:51:00,72.0,63.0,30.12,ESE,120,21.0,23.0,73,-99.99,,,-99.99,,2013-02-19 10:51:00,
2013-02-19 06:00:00,72.0,64.0,30.13,ESE,120,23.0,24.0,76,-99.99,,,-99.99,,2013-02-19 11:00:00,
2013-02-19 06:21:00,72.0,64.0,30.13,ESE,120,23.0,24.0,76,-99.99,,,-99.99,,2013-02-19 11:21:00,
2013-02-19 06:31:00,72.0,64.0,30.13,ESE,120,23.0,24.0,76,-99.99,,,-99.99,,2013-02-19 11:31:00,
2013-02-19 06:41:00,72.0,64.0,30.13,ESE,120,23.0,24.0,76,-99.99,,,-99.99,,2013-02-19 11:41:00,
2013-02-19 06:51:00,72.0,64.0,30.13,ESE,120,23.0,24.0,76,-99.99,,,-99.99,,2013-02-19 11:51:00,
2013-02-19 07:00:00,72.0,64.0,30.13,ESE,120,24.0,26.0,74,-99.99,,,-99.99,,2013-02-19 12:00:00,
2013-02-19 07:21:00,72.0,64.0,30.13,ESE,120,24.0,26.0,74,-99.99,,,-99.99,,2013-02-19 12:21:00,
2013-02-19 07:32:00,72.0,64.0,30.13,ESE,120,24.0,26.0,74,-99.99,,,-99.99,,2013-02-19 12:32:00,
2013-02-19 07:41:00,72.0,64.0,30.13,ESE,120,24.0,26.0,74,-99.99,,,-99.99,,2013-02-19 12:41:00,
2013-02-19 07:52:00,72.0,64.0,30.13,ESE,120,24.0,26.0,74,-99.99,,,-99.99,,2013-02-19 12:52:00,
2013-02-19 08:00:00,73.0,65.0,30.15,ESE,120,22.0,24.0,76,-99.99,,,-99.99,,2013-02-19 13:00:00,
2013-02-19 08:21:00,73.0,65.0,30.15,ESE,120,22.0,24.0,76,-99.99,,,-99.99,,2013-02-19 13:21:00,
2013-02-19 08:31:00,73.0,65.0,30.15,ESE,120,22.0,24.0,76,-99.99,,,-99.99,,2013-02-19 13:31:00,
2013-02-19 08:41:00,73.0,65.0,30.15,ESE,120,22.0,24.0,76,-99.99,,,-99.99,,2013-02-19 13:41:00,
2013-02-19 08:52:00,73.0,65.0,30.15,ESE,120,22.0,24.0,76,-99.99,,,-99.99,,2013-02-19 13:52:00,
2013-02-19 09:00:00,73.0,66.0,30.17,ESE,120,20.0,21.0,77,-99.99,,,-99.99,,2013-02-19 14:00:00,
2013-02-19 09:21:00,73.0,66.0,30.17,ESE,120,20.0,21.0,77,-99.99,,,-99.99,,2013-02-19 14:21:00,
2013-02-19 09:32:00,73.0,66.0,30.17,ESE,120,20.0,21.0,77,-99.99,,,-99.99,,2013-02-19 14:32:00,
2013-02-19 09:41:00,73.0,66.0,30.17,ESE,120,20.0,21.0,77,-99.99,,,-99.99,,2013-02-19 14:41:00,
2013-02-19 09:52:00,73.0,66.0,30.17,ESE,120,20.0,21.0,77,-99.99,,,-99.99,,2013-02-19 14:52:00,
2013-02-19 10:00:00,73.0,67.0,30.18,SE,130,22.0,24.0,79,-99.99,,,-99.99,,2013-02-19 15:00:00,
2013-02-19 10:21:00,73.0,67.0,30.18,SE,130,22.0,24.0,79,-99.99,,,-99.99,,2013-02-19 15:21:00,
2013-02-19 10:31:00,73.0,67.0,30.18,SE,130,22.0,24.0,79,-99.99,,,-99.99,,2013-02-19 15:31:00,
2013-02-19 10:41:00,73.0,67.0,30.18,SE,130,22.0,24.0,79,-99.99,,,-99.99,,2013-02-19 15:41:00,
2013-02-19 10:52:00,73.0,67.0,30.18,SE,130,22.0,24.0,79,-99.99,,,-99.99,,2013-02-19 15:52:00,
2013-02-19 11:00:00,74.0,67.0,30.17,SE,130,23.0,24.0,78,-99.99,,,-99.99,,2013-02-19 16:00:00,
2013-02-19 11:21:00,74.0,67.0,30.17,SE,130,23.0,24.0,78,-99.99,,,-99.99,,2013-02-19 16:21:00,
2013-02-19 11:31:00,74.0,67.0,30.17,SE,130,23.0,24.0,78,-99.99,,,-99.99,,2013-02-19 16:31:00,
2013-02-19 11:41:00,74.0,67.0,30.17,SE,130,23.0,24.0,78,-99.99,,,-99.99,,2013-02-19 16:41:00,
2013-02-19 11:51:00,74.0,67.0,30.17,SE,130,23.0,24.0,78,-99.99,,,-99.99,,2013-02-19 16:51:00,
2013-02-19 12:00:00,75.0,69.0,30.16,SE,130,17.0,18.0,81,-99.99,,,-99.99,,2013-02-19 17:00:00,
2013-02-19 12:21:00,75.0,69.0,30.16,SE,130,17.0,18.0,81,-99.99,,,-99.99,,2013-02-19 17:21:00,
2013-02-19 12:31:00,75.0,69.0,30.16,SE,130,17.0,18.0,81,-99.99,,,-99.99,,2013-02-19 17:31:00,
2013-02-19 12:41:00,75.0,69.0,30.16,SE,130,17.0,18.0,81,-99.99,,,-99.99,,2013-02-19 17:41:00,
2013-02-19 12:51:00,75.0,69.0,30.16,SE,130,17.0,18.0,81,-99.99,,,-99.99,,2013-02-19 17:51:00,
2013-02-19 13:00:00,74.0,70.0,30.14,SE,130,18.0,21.0,85,-99.99,,,-99.99,,2013-02-19 18:00:00,
2013-02-19 13:21:00,74.0,70.0,30.14,SE,130,18.0,21.0,85,-99.99,,,-99.99,,2013-02-19 18:21:00,
2013-02-19 13:31:00,74.0,70.0,30.14,SE,130,18.0,21.0,85,-99.99,,,-99.99,,2013-02-19 18:31:00,
2013-02-19 13:41:00,74.0,70.0,30.14,SE,130,18.0,21.0,85,-99.99,,,-99.99,,2013-02-19 18:41:00,
2013-02-19 13:51:00,74.0,70.0,30.14,SE,130,18.0,21.0,85,-99.99,,,-99.99,,2013-02-19 18:51:00,
2013-02-19 14:00:00,76.0,70.0,30.12,SE,130,18.0,21.0,82,-99.99,,,-99.99,,2013-02-19 19:00:00,
2013-02-19 14:21:00,76.0,70.0,30.12,SE,130,18.0,21.0,82,-99.99,,,-99.99,,2013-02-19 19:21:00,
2013-02-19 14:31:00,76.0,70.0,30.12,SE,130,18.0,21.0,82,-99.99,,,-99.99,,2013-02-19 19:31:00,
2013-02-19 14:41:00,76.0,70.0,30.12,SE,130,18.0,21.0,82,-99.99,,,-99.99,,2013-02-19 19:41:00,
2013-02-19 14:51:00,76.0,70.0,30.12,SE,130,18.0,21.0,82,-99.99,,,-99.99,,2013-02-19 19:51:00,
2013-02-19 15:00:00,75.0,69.0,30.12,SE,140,15.0,16.0,82,-99.99,,,-99.99,,2013-02-19 20:00:00,
2013-02-19 15:21:00,75.0,69.0,30.12,SE,140,15.0,16.0,82,-99.99,,,-99.99,,2013-02-19 20:21:00,
2013-02-19 15:31:00,75.0,69.0,30.12,SE,140,15.0,16.0,82,-99.99,,,-99.99,,2013-02-19 20:31:00,
2013-02-19 15:41:00,75.0,69.0,30.12,SE,140,15.0,16.0,82,-99.99,,,-99.99,,2013-02-19 20:41:00,
2013-02-19 15:52:00,75.0,69.0,30.12,SE,140,15.0,16.0,82,-99.99,,,-99.99,,2013-02-19 20:52:00,
2013-02-19 16:00:00,75.0,70.0,30.11,SE,140,14.0,15.0,84,-99.99,,,-99.99,,2013-02-19 21:00:00,
2013-02-19 16:21:00,75.0,70.0,30.11,SE,140,14.0,15.0,84,-99.99,,,-99.99,,2013-02-19 21:21:00,
2013-02-19 16:31:00,75.0,70.0,30.11,SE,140,14.0,15.0,84,-99.99,,,-99.99,,2013-02-19 21:31:00,
2013-02-19 16:42:00,75.0,70.0,30.11,SE,140,14.0,15.0,84,-99.99,,,-99.99,,2013-02-19 21:42:00,
2013-02-19 16:51:00,75.0,70.0,30.11,SE,140,14.0,15.0,84,-99.99,,,-99.99,,2013-02-19 21:51:00,
2013-02-19 17:00:00,75.0,70.0,30.10,ESE,120,13.0,14.0,83,-99.99,,,-99.99,,2013-02-19 22:00:00,
2013-02-19 17:21:00,75.0,70.0,30.10,ESE,120,13.0,14.0,83,-99.99,,,-99.99,,2013-02-19 22:21:00,
2013-02-19 17:31:00,75.0,70.0,30.10,ESE,120,13.0,14.0,83,-99.99,,,-99.99,,2013-02-19 22:31:00,
2013-02-19 17:41:00,75.0,70.0,30.10,ESE,120,13.0,14.0,83,-99.99,,,-99.99,,2013-02-19 22:41:00,
2013-02-19 17:51:00,75.0,70.0,30.10,ESE,120,13.0,14.0,83,-99.99,,,-99.99,,2013-02-19 22:51:00,
2013-02-19 18:00:00,70.0,68.0,30.11,NNW,330,9.0,11.0,94,-99.99,,,-99.99,,2013-02-19 23:00:00,
2013-02-19 18:21:00,70.0,68.0,30.11,NNW,330,9.0,11.0,94,-99.99,,,-99.99,,2013-02-19 23:21:00,
2013-02-19 18:31:00,70.0,68.0,30.11,NNW,330,9.0,11.0,94,-99.99,,,-99.99,,2013-02-19 23:31:00,
2013-02-19 18:41:00,70.0,68.0,30.11,NNW,330,9.0,11.0,94,-99.99,,,-99.99,,2013-02-19 23:41:00,
2013-02-19 18:51:00,70.0,68.0,30.11,NNW,330,9.0,11.0,94,-99.99,,,-99.99,,2013-02-19 23:51:00,
2013-02-19 19:00:00,69.0,64.0,30.11,ESE,110,6.0,8.0,83,-99.99,,,-99.99,,2013-02-20 00:00:00,
2013-02-19 19:21:00,69.0,64.0,30.11,ESE,110,6.0,8.0,83,-99.99,,,-99.99,,2013-02-20 00:21:00,
2013-02-19 19:31:00,69.0,64.0,30.11,ESE,110,6.0,8.0,83,-99.99,,,-99.99,,2013-02-20 00:31:00,
2013-02-19 19:41:00,69.0,64.0,30.11,ESE,110,6.0,8.0,83,-99.99,,,-99.99,,2013-02-20 00:41:00,
2013-02-19 19:51:00,69.0,64.0,30.11,ESE,110,6.0,8.0,83,-99.99,,,-99.99,,2013-02-20 00:51:00,
2013-02-19 20:00:00,71.0,70.0,30.12,SE,130,5.0,6.0,96,-99.99,,,-99.99,,2013-02-20 01:00:00,
2013-02-19 20:21:00,71.0,70.0,30.12,SE,130,5.0,6.0,96,-99.99,,,-99.99,,2013-02-20 01:21:00,
2013-02-19 20:31:00,71.0,70.0,30.12,SE,130,5.0,6.0,96,-99.99,,,-99.99,,2013-02-20 01:31:00,
2013-02-19 20:41:00,71.0,70.0,30.12,SE,130,5.0,6.0,96,-99.99,,,-99.99,,2013-02-20 01:41:00,
2013-02-19 20:51:00,71.0,70.0,30.12,SE,130,5.0,6.0,96,-99.99,,,-99.99,,2013-02-20 01:51:00,
2013-02-19 21:00:00,70.0,69.0,30.14,East,90,6.0,7.0,98,-99.99,,,-99.99,,2013-02-20 02:00:00,
2013-02-19 21:21:00,70.0,69.0,30.14,East,90,6.0,7.0,98,-99.99,,,-99.99,,2013-02-20 02:21:00,
2013-02-19 21:31:00,70.0,69.0,30.14,East,90,6.0,7.0,98,-99.99,,,-99.99,,2013-02-20 02:31:00,
2013-02-19 21:41:00,70.0,69.0,30.14,East,90,6.0,7.0,98,-99.99,,,-99.99,,2013-02-20 02:41:00,
2013-02-19 21:52:00,70.0,69.0,30.14,East,90,6.0,7.0,98,-99.99,,,-99.99,,2013-02-20 02:52:00,
2013-02-19 22:00:00,71.0,69.0,30.14,East,100,2.0,3.0,93,-99.99,,,-99.99,,2013-02-20 03:00:00,
2013-02-19 22:21:00,71.0,69.0,30.14,East,100,2.0,3.0,93,-99.99,,,-99.99,,2013-02-20 03:21:00,
2013-02-19 22:31:00,71.0,69.0,30.14,East,100,2.0,3.0,93,-99.99,,,-99.99,,2013-02-20 03:31:00,
2013-02-19 22:41:00,71.0,69.0,30.14,East,100,2.0,3.0,93,-99.99,,,-99.99,,2013-02-20 03:41:00,
2013-02-19 22:51:00,71.0,69.0,30.14,East,100,2.0,3.0,93,-99.99,,,-99.99,,2013-02-20 03:51:00,
2013-02-19 23:00:00,73.0,68.0,30.12,East,100,6.0,7.0,85,-99.99,,,-99.99,,2013-02-20 04:00:00,
2013-02-19 23:21:00,73.0,68.0,30.12,East,100,6.0,7.0,85,-99.99,,,-99.99,,2013-02-20 04:21:00,
2013-02-19 23:31:00,73.0,68.0,30.12,East,100,6.0,7.0,85,-99.99,,,-99.99,,2013-02-20 04:31:00,
2013-02-19 23:41:00,73.0,68.0,30.12,East,100,6.0,7.0,85,-99.99,,,-99.99,,2013-02-20 04:41:00,
2013-02-19 23:51:00,73.0,68.0,30.12,East,100,6.0,7.0,85,-99.99,,,-99.99,,2013-02-20 04:51:00,